Location: �terpigny
(49.8910°N, 2.9249°E)
Time: 19:01:40
(UTC+00:00)

Cosmos 2333 Rocket - Pass Details

Date: 24 October 2021
Orbit: 837 x 865 km, 70.8° (Epoch: 07 December)

Event Time Altitude Azimuth Distance (km) Brightness Sun altitude
Rises 20:04:38 0° 220° (SW) 3,390 5.5 -33.2°
Reaches altitude 10° 20:07:06 10° 224° (SW) 2,462 4.8 -33.6°
Enters shadow 20:09:38 27° 234° (SW) 1,575 3.8 -34.0°
